{"data":{"norad_id":36588,"epoch":"2026-05-25T02:47:00.843936Z","epoch_age_seconds":68078,"freshness":"FRESH","line1":"1 36588U 10023A   26145.11598199  .00000009  00000+0  14196-3 0  9999","line2":"2 36588 100.4284 333.1626 0016943 329.4258 142.3721 13.16051685767737","mean_motion":13.16051685,"eccentricity":0.0016943,"inclination_deg":100.4284,"raan_deg":333.1626,"arg_perigee_deg":329.4258,"mean_anomaly_deg":142.3721,"bstar":0.00014196,"rev_number":76773,"period_min":109.41819507643,"perigee_km":1186.999381801,"apogee_km":1212.6781104143,"semimajor_km":7577.9757461077,"source":"CELESTRAK","updated_at":"2026-05-25T13:37:55.196830Z"}}